| time (UTC) | temp F | wind direction | speed knots | gust knots | rain 1hr in | rain 24hr in | rain mn in | humidity % | barometer mb |
| 20260904135558 | 86 | 208 | 1.7 | 6.1 | 0.00 | 0.00 | 0.00 | 100 | 1017.7 |
| 20260904135055 | 86 | 233 | 2.6 | 6.1 | 0.00 | 0.00 | 0.00 | 100 | 1017.6 |
| 20260904134603 | 86 | 217 | 1.7 | 8.7 | 0.00 | 0.00 | 0.00 | 100 | 1017.7 |
| 20260904134050 | 86 | 233 | 1.7 | 8.7 | 0.00 | 0.00 | 0.00 | 100 | 1017.8 |
| 20260904133549 | 85 | 202 | 1.7 | 6.1 | 0.00 | 0.00 | 0.00 | 100 | 1017.8 |
| 20260904133053 | 85 | 228 | 1.7 | 7.0 | 0.00 | 0.00 | 0.00 | 100 | 1017.8 |
| 20260904132546 | 85 | 235 | 1.7 | 6.1 | 0.00 | 0.00 | 0.00 | 100 | 1017.8 |
| 20260904132047 | 85 | 235 | 1.7 | 7.8 | 0.00 | 0.00 | 0.00 | 100 | 1017.7 |
| 20260904131546 | 85 | 221 | 2.6 | 7.8 | 0.00 | 0.00 | 0.00 | 100 | 1017.6 |
| 20260904131044 | 84 | 219 | 1.7 | 6.1 | 0.00 | 0.00 | 0.00 | 100 | 1017.6 |
| 20260904130541 | 84 | 212 | 1.7 | 6.1 | 0.00 | 0.00 | 0.00 | 100 | 1017.5 |
| 20260904130050 | 84 | 218 | 0.0 | 5.2 | 0.00 | 0.00 | 0.00 | 100 | 1017.5 |
| 20260904125539 | 83 | 211 | 0.9 | 4.3 | 0.00 | 0.00 | 0.00 | 100 | 1017.5 |
| 20260904125038 | 83 | 192 | 1.7 | 4.3 | 0.00 | 0.00 | 0.00 | 100 | 1017.4 |
| 20260904124538 | 82 | 167 | 1.7 | 3.5 | 0.00 | 0.00 | 0.00 | 100 | 1017.3 |
| 20260904124037 | 82 | 200 | 0.0 | 2.6 | 0.00 | 0.00 | 0.00 | 100 | 1017.4 |
| 20260904123537 | 81 | 180 | 0.0 | 2.6 | 0.00 | 0.00 | 0.00 | 100 | 1017.4 |
| 20260904123036 | 81 | 164 | 0.0 | 0.0 | 0.00 | 0.00 | 0.00 | 100 | 1017.4 |
| 20260904122536 | 80 | 157 | 0.0 | 0.0 | 0.00 | 0.00 | 0.00 | 100 | 1017.3 |
| 20260904122037 | 80 | 157 | 0.0 | 0.0 | 0.00 | 0.00 | 0.00 | 100 | 1017.2 |
| 20260904121539 | 79 | 157 | 0.0 | 0.0 | 0.00 | 0.00 | 0.00 | 100 | 1017.2 |
| 20260904121036 | 79 | 157 | 0.0 | 0.0 | 0.00 | 0.00 | 0.00 | 100 | 1017.4 |
| 20260904120539 | 79 | 157 | 0.0 | 0.0 | 0.00 | 0.00 | 0.00 | 100 | 1017.2 |
| 20260904120034 | 79 | 157 | 0.0 | 0.0 | 0.00 | 0.00 | 0.00 | 100 | 1017.1 |
| 20260904115533 | 79 | 157 | 0.0 | 0.0 | 0.00 | 0.00 | 0.00 | 100 | 1017.0 |
| 20260904115034 | 79 | 157 | 0.0 | 0.0 | 0.00 | 0.00 | 0.00 | 100 | 1017.0 |
| 20260904114534 | 79 | 157 | 0.0 | 0.0 | 0.00 | 0.00 | 0.00 | 100 | 1017.0 |
| 20260904114034 | 79 | 157 | 0.0 | 0.0 | 0.00 | 0.00 | 0.00 | 100 | 1017.0 |
| 20260904113535 | 79 | 157 | 0.0 | 0.0 | 0.00 | 0.00 | 0.00 | 100 | 1016.9 |
| 20260904113035 | 79 | 157 | 0.0 | 0.0 | 0.00 | 0.00 | 0.00 | 100 | 1016.8 |
| 20260904112533 | 79 | 157 | 0.0 | 0.0 | 0.00 | 0.00 | 0.00 | 100 | 1016.8 |
| 20260904112032 | 79 | 157 | 0.0 | 0.0 | 0.00 | 0.00 | 0.00 | 100 | 1016.8 |
| 20260904111539 | 79 | 156 | 0.0 | 0.0 | 0.00 | 0.00 | 0.00 | 100 | 1016.7 |
| 20260904111031 | 79 | 156 | 0.0 | 0.0 | 0.00 | 0.00 | 0.00 | 100 | 1016.7 |
| 20260904110530 | 79 | 156 | 0.0 | 0.0 | 0.00 | 0.00 | 0.00 | 100 | 1016.5 |
| 20260904110030 | 79 | 156 | 0.0 | 0.0 | 0.00 | 0.00 | 0.00 | 100 | 1016.5 |
| 20260904105532 | 79 | 156 | 0.0 | 0.0 | 0.00 | 0.00 | 0.00 | 100 | 1016.5 |
| 20260904105029 | 79 | 156 | 0.0 | 0.0 | 0.00 | 0.00 | 0.00 | 100 | 1016.5 |
| 20260904104534 | 79 | 156 | 0.0 | 0.0 | 0.00 | 0.00 | 0.00 | 100 | 1016.5 |
| 20260904104032 | 79 | 156 | 0.0 | 0.0 | 0.00 | 0.00 | 0.00 | 100 | 1016.5 |
| 20260904103529 | 79 | 156 | 0.0 | 0.0 | 0.00 | 0.00 | 0.00 | 100 | 1016.5 |
| 20260904103029 | 79 | 156 | 0.0 | 0.0 | 0.00 | 0.00 | 0.00 | 100 | 1016.5 |
| 20260904102535 | 79 | 156 | 0.0 | 0.0 | 0.00 | 0.00 | 0.00 | 100 | 1016.3 |
| 20260904102029 | 79 | 156 | 0.0 | 0.9 | 0.00 | 0.00 | 0.00 | 100 | 1016.3 |
| 20260904101529 | 79 | 156 | 0.0 | 0.9 | 0.00 | 0.00 | 0.00 | 100 | 1016.2 |
| 20260904101029 | 79 | 155 | 0.0 | 0.0 | 0.00 | 0.00 | 0.00 | 100 | 1016.1 |
| 20260904100529 | 79 | 155 | 0.0 | 0.0 | 0.00 | 0.00 | 0.00 | 100 | 1016.1 |
| 20260904100029 | 79 | 155 | 0.0 | 0.0 | 0.00 | 0.00 | 0.00 | 100 | 1016.0 |
| 20260904095528 | 79 | 155 | 0.0 | 1.7 | 0.00 | 0.00 | 0.00 | 100 | 1015.9 |
| 20260904095028 | 79 | 155 | 0.0 | 1.7 | 0.00 | 0.00 | 0.00 | 100 | 1016.0 |
| 20260904094527 | 79 | 155 | 0.0 | 1.7 | 0.00 | 0.00 | 0.00 | 100 | 1016.0 |
| 20260904094026 | 79 | 155 | 0.0 | 0.0 | 0.00 | 0.00 | 0.00 | 100 | 1015.9 |
| 20260904093527 | 80 | 155 | 0.0 | 0.0 | 0.00 | 0.00 | 0.00 | 100 | 1015.9 |
| 20260904093026 | 80 | 155 | 0.0 | 0.0 | 0.00 | 0.00 | 0.00 | 100 | 1016.0 |
| 20260904092528 | 80 | 155 | 0.0 | 0.0 | 0.00 | 0.00 | 0.00 | 100 | 1015.9 |
| 20260904092026 | 80 | 155 | 0.0 | 0.0 | 0.00 | 0.00 | 0.00 | 100 | 1015.9 |
| 20260904091526 | 80 | 155 | 0.0 | 0.0 | 0.00 | 0.00 | 0.00 | 100 | 1015.8 |
| 20260904091024 | 80 | 155 | 0.0 | 0.0 | 0.00 | 0.00 | 0.00 | 100 | 1015.8 |
| 20260904090526 | 80 | 155 | 0.0 | 0.0 | 0.00 | 0.00 | 0.00 | 100 | 1015.8 |
| 20260904090030 | 80 | 155 | 0.0 | 0.0 | 0.00 | 0.00 | 0.00 | 100 | 1015.8 |
| 20260904085526 | 80 | 155 | 0.0 | 0.0 | 0.00 | 0.00 | 0.00 | 100 | 1015.8 |
| 20260904085024 | 80 | 155 | 0.0 | 0.0 | 0.00 | 0.00 | 0.00 | 100 | 1015.7 |
| 20260904084525 | 80 | 155 | 0.0 | 0.0 | 0.00 | 0.00 | 0.00 | 100 | 1015.7 |
| 20260904084126 | 80 | 155 | 0.0 | 0.0 | 0.00 | 0.00 | 0.00 | 100 | 1015.8 |
| 20260904083522 | 80 | 155 | 0.0 | 0.0 | 0.00 | 0.00 | 0.00 | 100 | 1015.7 |
| 20260904083021 | 80 | 155 | 0.0 | 0.0 | 0.00 | 0.00 | 0.00 | 100 | 1015.7 |
| 20260904082522 | 80 | 155 | 0.0 | 0.0 | 0.00 | 0.00 | 0.00 | 100 | 1015.7 |
| 20260904082021 | 81 | 155 | 0.0 | 0.0 | 0.00 | 0.00 | 0.00 | 100 | 1015.8 |
| 20260904081521 | 81 | 155 | 0.0 | 1.7 | 0.00 | 0.00 | 0.00 | 100 | 1015.8 |
| 20260904081021 | 81 | 155 | 0.0 | 1.7 | 0.00 | 0.00 | 0.00 | 100 | 1015.7 |
| 20260904080521 | 81 | 155 | 0.0 | 2.6 | 0.00 | 0.00 | 0.00 | 100 | 1015.7 |
| 20260904080021 | 81 | 155 | 0.0 | 2.6 | 0.00 | 0.00 | 0.00 | 100 | 1015.6 |
| 20260904075520 | 81 | 154 | 0.9 | 2.6 | 0.00 | 0.00 | 0.00 | 100 | 1015.5 |
| 20260904075020 | 81 | 153 | 1.7 | 2.6 | 0.00 | 0.00 | 0.00 | 100 | 1015.6 |
| 20260904074530 | 81 | 153 | 0.0 | 1.7 | 0.00 | 0.00 | 0.00 | 100 | 1015.6 |
| 20260904074020 | 81 | 154 | 0.0 | 0.0 | 0.00 | 0.00 | 0.00 | 100 | 1015.4 |
| 20260904073523 | 81 | 154 | 0.0 | 0.0 | 0.00 | 0.00 | 0.00 | 100 | 1015.5 |
| 20260904073020 | 81 | 154 | 0.0 | 0.0 | 0.00 | 0.00 | 0.00 | 100 | 1015.4 |
| 20260904072520 | 81 | 154 | 0.0 | 0.0 | 0.00 | 0.00 | 0.00 | 100 | 1015.5 |
| 20260904072020 | 81 | 154 | 0.0 | 0.0 | 0.00 | 0.00 | 0.00 | 100 | 1015.6 |
| 20260904071518 | 81 | 154 | 0.0 | 0.0 | 0.00 | 0.00 | 0.00 | 100 | 1015.6 |
| 20260904071017 | 81 | 154 | 0.0 | 0.0 | 0.00 | 0.00 | 0.00 | 100 | 1015.6 |
| 20260904070520 | 81 | 154 | 0.0 | 0.0 | 0.00 | 0.00 | 0.00 | 100 | 1015.7 |
| 20260904070017 | 81 | 154 | 0.0 | 0.0 | 0.00 | 0.00 | 0.00 | 100 | 1015.7 |
| 20260904065515 | 81 | 154 | 0.0 | 0.0 | 0.00 | 0.00 | 0.00 | 100 | 1015.8 |
| 20260904065015 | 81 | 154 | 0.0 | 0.0 | 0.00 | 0.00 | 0.00 | 100 | 1015.8 |
| 20260904064515 | 81 | 154 | 0.0 | 0.0 | 0.00 | 0.00 | 0.00 | 100 | 1015.8 |
| 20260904064014 | 81 | 154 | 0.0 | 0.0 | 0.00 | 0.00 | 0.00 | 100 | 1015.8 |
| 20260904063513 | 81 | 154 | 0.0 | 0.0 | 0.00 | 0.00 | 0.00 | 100 | 1015.9 |
| 20260904063014 | 81 | 154 | 0.0 | 0.0 | 0.00 | 0.00 | 0.00 | 100 | 1016.0 |
| 20260904062512 | 81 | 154 | 0.0 | 0.0 | 0.00 | 0.00 | 0.00 | 100 | 1015.9 |
| 20260904062013 | 82 | 154 | 0.0 | 0.0 | 0.00 | 0.00 | 0.00 | 100 | 1015.9 |
| 20260904061520 | 82 | 154 | 0.0 | 0.0 | 0.00 | 0.00 | 0.00 | 100 | 1016.0 |
| 20260904061017 | 82 | 154 | 0.0 | 0.0 | 0.00 | 0.00 | 0.00 | 100 | 1016.0 |
| 20260904060511 | 82 | 154 | 0.0 | 2.6 | 0.00 | 0.00 | 0.00 | 100 | 1016.1 |
| 20260904060018 | 82 | 154 | 0.0 | 4.3 | 0.00 | 0.00 | 0.00 | 100 | 1016.2 |
| 20260904055510 | 82 | 154 | 0.9 | 6.1 | 0.00 | 0.00 | 0.00 | 100 | 1016.1 |
| 20260904055009 | 82 | 148 | 1.7 | 6.1 | 0.00 | 0.00 | 0.00 | 100 | 1016.2 |
| 20260904054514 | 82 | 152 | 1.7 | 5.2 | 0.00 | 0.00 | 0.00 | 100 | 1016.3 |
| 20260904054008 | 82 | 177 | 1.7 | 5.2 | 0.00 | 0.00 | 0.00 | 100 | 1016.3 |
| 20260904053510 | 82 | 149 | 1.7 | 5.2 | 0.00 | 0.00 | 0.00 | 100 | 1016.4 |
| 20260904053008 | 82 | 151 | 1.7 | 5.2 | 0.00 | 0.00 | 0.00 | 100 | 1016.4 |
| 20260904052512 | 82 | 155 | 1.7 | 4.3 | 0.00 | 0.00 | 0.00 | 100 | 1016.4 |
| 20260904052010 | 82 | 147 | 1.7 | 6.1 | 0.00 | 0.00 | 0.00 | 100 | 1016.4 |
| 20260904051514 | 82 | 157 | 1.7 | 7.0 | 0.00 | 0.00 | 0.00 | 100 | 1016.4 |
| 20260904051008 | 82 | 175 | 1.7 | 7.8 | 0.00 | 0.00 | 0.00 | 100 | 1016.4 |
| 20260904050508 | 82 | 172 | 1.7 | 7.8 | 0.00 | 0.00 | 0.00 | 100 | 1016.3 |
| 20260904050006 | 82 | 177 | 4.3 | 7.8 | 0.00 | 0.00 | 0.00 | 100 | 1016.4 |
| 20260904045508 | 82 | 140 | 3.5 | 7.0 | 0.00 | 0.00 | 0.00 | 100 | 1016.4 |
| 20260904045005 | 82 | 169 | 1.7 | 6.1 | 0.00 | 0.00 | 0.00 | 100 | 1016.4 |
| 20260904044505 | 82 | 136 | 2.6 | 7.0 | 0.00 | 0.00 | 0.00 | 100 | 1016.4 |
| 20260904044006 | 83 | 142 | 0.0 | 7.0 | 0.00 | 0.00 | 0.00 | 100 | 1016.4 |
| 20260904043504 | 83 | 187 | 2.6 | 7.0 | 0.00 | 0.00 | 0.00 | 100 | 1016.6 |
| 20260904043004 | 82 | 158 | 3.5 | 7.0 | 0.00 | 0.00 | 0.00 | 100 | 1016.5 |
| 20260904042504 | 82 | 138 | 2.6 | 6.1 | 0.00 | 0.00 | 0.00 | 100 | 1016.5 |
| 20260904042003 | 82 | 174 | 1.7 | 6.1 | 0.00 | 0.00 | 0.00 | 100 | 1016.4 |
| 20260904041503 | 82 | 143 | 2.6 | 7.8 | 0.00 | 0.00 | 0.00 | 100 | 1016.4 |
| 20260904041003 | 82 | 159 | 3.5 | 7.0 | 0.00 | 0.00 | 0.00 | 100 | 1016.5 |
| 20260904040502 | 82 | 159 | 1.7 | 6.1 | 0.00 | 0.00 | 0.00 | 100 | 1016.7 |
| 20260904040004 | 82 | 155 | 2.6 | 6.1 | 0.00 | 0.00 | 0.00 | 100 | 1016.5 |
| 20260904035603 | 82 | 140 | 0.0 | 3.5 | 0.00 | 0.00 | 0.00 | 100 | 1016.5 |
| 20260904035101 | 82 | 140 | 0.9 | 3.5 | 0.00 | 0.00 | 0.00 | 100 | 1016.5 |
| 20260904034559 | 82 | 142 | 0.0 | 3.5 | 0.00 | 0.00 | 0.00 | 100 | 1016.5 |
| 20260904034101 | 82 | 142 | 0.0 | 3.5 | 0.00 | 0.00 | 0.00 | 100 | 1016.6 |
| 20260904033600 | 82 | 142 | 0.0 | 6.1 | 0.00 | 0.00 | 0.00 | 100 | 1016.5 |
| 20260904033100 | 82 | 141 | 1.7 | 6.1 | 0.00 | 0.00 | 0.00 | 100 | 1016.5 |
| 20260904032559 | 82 | 155 | 0.9 | 4.3 | 0.00 | 0.00 | 0.00 | 100 | 1016.5 |
| 20260904032058 | 82 | 155 | 0.9 | 3.5 | 0.00 | 0.00 | 0.00 | 100 | 1016.7 |
| 20260904031600 | 81 | 132 | 0.9 | 3.5 | 0.00 | 0.00 | 0.00 | 100 | 1016.6 |
| 20260904031058 | 81 | 132 | 0.9 | 3.5 | 0.00 | 0.00 | 0.00 | 100 | 1016.6 |
| 20260904030559 | 81 | 129 | 1.7 | 6.1 | 0.00 | 0.00 | 0.00 | 100 | 1016.6 |
| 20260904030058 | 81 | 134 | 1.7 | 6.1 | 0.00 | 0.00 | 0.00 | 100 | 1016.7 |
| 20260904025558 | 81 | 129 | 0.9 | 4.3 | 0.00 | 0.00 | 0.00 | 100 | 1016.7 |
| 20260904025057 | 80 | 158 | 0.0 | 0.0 | 0.00 | 0.00 | 0.00 | 100 | 1016.7 |
| 20260904024558 | 80 | 159 | 0.0 | 0.0 | 0.00 | 0.00 | 0.00 | 100 | 1016.9 |
| 20260904024100 | 80 | 159 | 0.0 | 0.0 | 0.00 | 0.00 | 0.00 | 100 | 1016.8 |
| 20260904023557 | 81 | 159 | 0.0 | 0.9 | 0.00 | 0.00 | 0.00 | 100 | 1016.8 |
| 20260904023058 | 81 | 159 | 0.0 | 2.6 | 0.00 | 0.00 | 0.00 | 100 | 1016.9 |
| 20260904022557 | 81 | 159 | 0.9 | 2.6 | 0.00 | 0.00 | 0.00 | 100 | 1016.9 |
| 20260904022057 | 81 | 157 | 0.0 | 0.0 | 0.00 | 0.00 | 0.00 | 100 | 1016.9 |
| 20260904021557 | 81 | 157 | 0.0 | 0.0 | 0.00 | 0.00 | 0.00 | 100 | 1016.9 |
| 20260904021057 | 81 | 157 | 0.0 | 0.0 | 0.00 | 0.00 | 0.00 | 100 | 1016.9 |
| 20260904020557 | 81 | 156 | 0.0 | 1.7 | 0.00 | 0.00 | 0.00 | 100 | 1016.9 |
| 20260904020058 | 81 | 156 | 0.0 | 4.3 | 0.00 | 0.00 | 0.00 | 100 | 1016.9 |
| 20260904015556 | 81 | 156 | 0.9 | 5.2 | 0.00 | 0.00 | 0.00 | 100 | 1017.0 |
| 20260904015056 | 81 | 158 | 1.7 | 5.2 | 0.00 | 0.00 | 0.00 | 100 | 1017.0 |
| 20260904014606 | 81 | 146 | 1.7 | 6.1 | 0.00 | 0.00 | 0.00 | 100 | 1016.9 |
| 20260904014056 | 81 | 164 | 2.6 | 6.1 | 0.00 | 0.00 | 0.00 | 100 | 1016.9 |
| 20260904013555 | 81 | 159 | 1.7 | 5.2 | 0.00 | 0.00 | 0.00 | 100 | 1016.9 |
| 20260904013055 | 81 | 150 | 1.7 | 6.1 | 0.00 | 0.00 | 0.00 | 100 | 1016.9 |
| 20260904012556 | 81 | 162 | 2.6 | 6.1 | 0.00 | 0.00 | 0.00 | 100 | 1016.9 |
| 20260904012056 | 81 | 155 | 1.7 | 5.2 | 0.00 | 0.00 | 0.00 | 100 | 1016.8 |
| 20260904011555 | 81 | 161 | 0.9 | 4.3 | 0.00 | 0.00 | 0.00 | 100 | 1016.7 |
| 20260904011155 | 81 | 151 | 0.0 | 6.1 | 0.00 | 0.00 | 0.00 | 100 | 1016.6 |
| 20260904010554 | 80 | 159 | 2.6 | 6.1 | 0.00 | 0.00 | 0.00 | 100 | 1016.5 |
| 20260904010112 | 80 | 156 | 1.7 | 5.2 | 0.00 | 0.00 | 0.00 | 100 | 1016.5 |
| 20260904005559 | 81 | 153 | 0.0 | 4.3 | 0.00 | 0.00 | 0.00 | 100 | 1016.3 |
| 20260904005053 | 80 | 153 | 0.9 | 4.3 | 0.00 | 0.00 | 0.00 | 100 | 1016.2 |
| 20260904004554 | 81 | 149 | 0.0 | 2.6 | 0.00 | 0.00 | 0.00 | 100 | 1016.2 |
| 20260904004053 | 80 | 149 | 0.9 | 4.3 | 0.00 | 0.00 | 0.00 | 100 | 1016.2 |
| 20260904003553 | 81 | 148 | 0.0 | 6.1 | 0.00 | 0.00 | 0.00 | 100 | 1016.2 |
| 20260904003053 | 81 | 148 | 0.9 | 6.1 | 0.00 | 0.00 | 0.00 | 100 | 1016.2 |
| 20260904002655 | 81 | 150 | 1.7 | 5.2 | 0.00 | 0.00 | 0.00 | 100 | 1016.2 |
| 20260904002053 | 81 | 134 | 0.9 | 5.2 | 0.00 | 0.00 | 0.00 | 100 | 1016.0 |
| 20260904001552 | 81 | 150 | 0.9 | 7.0 | 0.00 | 0.00 | 0.00 | 100 | 1016.1 |
| 20260904001052 | 81 | 148 | 2.6 | 7.0 | 0.00 | 0.00 | 0.00 | 100 | 1016.2 |
| 20260904000552 | 81 | 154 | 0.9 | 8.7 | 0.00 | 0.00 | 0.00 | 100 | 1016.2 |
| 20260904000057 | 81 | 143 | 3.5 | 8.7 | 0.00 | 0.00 | 0.00 | 100 | 1016.3 |
| 20260903235552 | 82 | 155 | 3.5 | 8.7 | 0.00 | 0.00 | 0.00 | 100 | 1016.3 |
| 20260903235051 | 82 | 148 | 2.6 | 7.8 | 0.00 | 0.00 | 0.00 | 100 | 1016.2 |
| 20260903234551 | 82 | 140 | 2.6 | 8.7 | 0.00 | 0.00 | 0.00 | 100 | 1016.1 |
| 20260903234051 | 82 | 142 | 0.9 | 9.6 | 0.00 | 0.00 | 0.00 | 100 | 1015.9 |
| 20260903233551 | 82 | 127 | 2.6 | 9.6 | 0.00 | 0.00 | 0.00 | 100 | 1015.8 |
| 20260903233055 | 82 | 200 | 1.7 | 9.6 | 0.00 | 0.00 | 0.00 | 100 | 1015.8 |
| 20260903232551 | 82 | 118 | 3.5 | 9.6 | 0.00 | 0.00 | 0.00 | 100 | 1015.8 |
| 20260903232051 | 82 | 136 | 3.5 | 8.7 | 0.00 | 0.00 | 0.00 | 100 | 1015.7 |
| 20260903231551 | 82 | 136 | 3.5 | 8.7 | 0.00 | 0.00 | 0.00 | 100 | 1015.8 |
| 20260903231051 | 83 | 138 | 3.5 | 7.8 | 0.00 | 0.00 | 0.00 | 100 | 1015.9 |
| 20260903230550 | 83 | 148 | 2.6 | 6.1 | 0.00 | 0.00 | 0.00 | 100 | 1016.1 |
| 20260903230050 | 83 | 142 | 1.7 | 11.3 | 0.00 | 0.00 | 0.00 | 100 | 1015.9 |
| 20260903225549 | 83 | 152 | 6.1 | 13.9 | 0.00 | 0.00 | 0.00 | 100 | 1016.0 |
| 20260903225049 | 83 | 115 | 3.5 | 12.2 | 0.00 | 0.00 | 0.00 | 100 | 1016.0 |
| 20260903224549 | 83 | 155 | 2.6 | 7.8 | 0.00 | 0.00 | 0.00 | 100 | 1015.9 |
| 20260903224052 | 84 | 157 | 1.7 | 7.8 | 0.00 | 0.00 | 0.00 | 100 | 1015.8 |
| 20260903223549 | 83 | 128 | 3.5 | 7.8 | 0.00 | 0.00 | 0.00 | 100 | 1015.7 |
| 20260903223051 | 84 | 101 | 1.7 | 9.6 | 0.00 | 0.00 | 0.00 | 100 | 1015.6 |
| 20260903222549 | 83 | 163 | 4.3 | 9.6 | 0.00 | 0.00 | 0.00 | 100 | 1015.6 |
| 20260903222049 | 84 | 145 | 1.7 | 7.0 | 0.00 | 0.00 | 0.00 | 100 | 1015.7 |
| 20260903221549 | 84 | 109 | 2.6 | 11.3 | 0.00 | 0.00 | 0.00 | 100 | 1015.5 |
| 20260903221048 | 84 | 154 | 4.3 | 9.6 | 0.00 | 0.00 | 0.00 | 100 | 1015.5 |
| 20260903220548 | 84 | 167 | 3.5 | 9.6 | 0.00 | 0.00 | 0.00 | 100 | 1015.4 |
| 20260903220052 | 84 | 120 | 2.6 | 9.6 | 0.00 | 0.00 | 0.00 | 100 | 1015.6 |
| 20260903215547 | 84 | 143 | 6.1 | 9.6 | 0.00 | 0.00 | 0.00 | 100 | 1015.6 |
| 20260903215046 | 84 | 109 | 2.6 | 7.8 | 0.00 | 0.00 | 0.00 | 100 | 1015.7 |
| 20260903214548 | 84 | 184 | 2.6 | 8.7 | 0.00 | 0.00 | 0.00 | 100 | 1015.6 |
| 20260903214047 | 84 | 135 | 2.6 | 8.7 | 0.00 | 0.00 | 0.00 | 100 | 1015.6 |
| 20260903213547 | 84 | 113 | 4.3 | 11.3 | 0.00 | 0.00 | 0.00 | 100 | 1015.4 |
| 20260903213048 | 85 | 126 | 4.3 | 11.3 | 0.00 | 0.00 | 0.00 | 100 | 1015.4 |
| 20260903212546 | 85 | 99 | 4.3 | 10.4 | 0.00 | 0.00 | 0.00 | 100 | 1015.7 |
| 20260903212046 | 85 | 126 | 3.5 | 10.4 | 0.00 | 0.00 | 0.00 | 100 | 1015.8 |
| 20260903211545 | 84 | 130 | 4.3 | 10.4 | 0.00 | 0.00 | 0.00 | 100 | 1015.5 |
| 20260903211047 | 85 | 148 | 6.1 | 12.2 | 0.00 | 0.00 | 0.00 | 100 | 1015.5 |
| 20260903210545 | 85 | 110 | 3.5 | 12.2 | 0.00 | 0.00 | 0.00 | 100 | 1015.4 |
| 20260903205545 | 85 | 100 | 4.3 | 11.3 | 0.00 | 0.00 | 0.00 | 100 | 1014.6 |
| 20260903205044 | 85 | 115 | 5.2 | 10.4 | 0.00 | 0.00 | 0.00 | 100 | 1014.6 |
| 20260903204603 | 85 | 155 | 4.3 | 11.3 | 0.00 | 0.00 | 0.00 | 100 | 1014.6 |
| 20260903204046 | 85 | 132 | 3.5 | 11.3 | 0.00 | 0.00 | 0.00 | 100 | 1014.3 |
| 20260903203543 | 84 | 112 | 1.7 | 11.3 | 0.00 | 0.00 | 0.00 | 100 | 1014.5 |
| 20260903203045 | 84 | 168 | 4.3 | 11.3 | 0.00 | 0.00 | 0.00 | 100 | 1014.5 |
| 20260903202543 | 85 | 126 | 4.3 | 8.7 | 0.00 | 0.00 | 0.00 | 100 | 1014.5 |
| 20260903202043 | 85 | 122 | 2.6 | 9.6 | 0.00 | 0.00 | 0.00 | 100 | 1014.6 |
| 20260903201542 | 85 | 117 | 3.5 | 9.6 | 0.00 | 0.00 | 0.00 | 100 | 1015.1 |
| 20260903201046 | 84 | 120 | 4.3 | 9.6 | 0.00 | 0.00 | 0.00 | 100 | 1015.4 |
| 20260903200542 | 85 | 140 | 4.3 | 9.6 | 0.00 | 0.00 | 0.00 | 100 | 1015.7 |
| 20260903200051 | 85 | 134 | 3.5 | 7.8 | 0.00 | 0.00 | 0.00 | 100 | 1015.7 |
| 20260903195541 | 85 | 111 | 3.5 | 8.7 | 0.00 | 0.00 | 0.00 | 100 | 1015.4 |
| 20260903195043 | 85 | 122 | 3.5 | 9.6 | 0.00 | 0.00 | 0.00 | 100 | 1015.2 |
| 20260903194541 | 85 | 125 | 2.6 | 8.7 | 0.00 | 0.00 | 0.00 | 100 | 1015.1 |
| 20260903194042 | 85 | 77 | 2.6 | 7.0 | 0.00 | 0.00 | 0.00 | 100 | 1015.3 |
| 20260903193542 | 85 | 128 | 2.6 | 6.1 | 0.00 | 0.00 | 0.00 | 100 | 1015.4 |
| 20260903193040 | 85 | 130 | 1.7 | 7.0 | 0.00 | 0.00 | 0.00 | 100 | 1015.6 |
| 20260903192539 | 85 | 80 | 1.7 | 7.0 | 0.00 | 0.00 | 0.00 | 100 | 1015.7 |
| 20260903192042 | 84 | 157 | 1.7 | 7.0 | 0.00 | 0.00 | 0.00 | 100 | 1015.5 |
| 20260903191541 | 84 | 123 | 2.6 | 7.0 | 0.00 | 0.00 | 0.00 | 100 | 1015.6 |
| 20260903191040 | 84 | 117 | 2.6 | 7.0 | 0.00 | 0.00 | 0.00 | 100 | 1015.6 |
| 20260903190539 | 84 | 114 | 1.7 | 6.1 | 0.00 | 0.00 | 0.00 | 100 | 1015.7 |
| 20260903190040 | 84 | 76 | 0.0 | 5.2 | 0.00 | 0.00 | 0.00 | 100 | 1015.7 |
| 20260903185539 | 84 | 163 | 1.7 | 7.0 | 0.00 | 0.00 | 0.00 | 100 | 1015.6 |
| 20260903185039 | 83 | 111 | 2.6 | 8.7 | 0.00 | 0.00 | 0.00 | 100 | 1015.7 |
| 20260903184543 | 83 | 113 | 2.6 | 11.3 | 0.00 | 0.00 | 0.00 | 100 | 1015.7 |
| 20260903184040 | 83 | 71 | 4.3 | 11.3 | 0.00 | 0.00 | 0.00 | 100 | 1015.7 |
| 20260903183538 | 83 | 151 | 0.9 | 7.8 | 0.00 | 0.00 | 0.00 | 100 | 1015.8 |
| 20260903183038 | 84 | 134 | 2.6 | 7.0 | 0.00 | 0.00 | 0.00 | 100 | 1016.0 |
| 20260903182537 | 84 | 121 | 0.9 | 6.1 | 0.00 | 0.00 | 0.00 | 100 | 1016.0 |
| 20260903182037 | 84 | 101 | 1.7 | 7.0 | 0.00 | 0.00 | 0.00 | 100 | 1016.3 |
| 20260903181537 | 85 | 78 | 0.9 | 7.0 | 0.00 | 0.00 | 0.00 | 100 | 1016.3 |
| 20260903181036 | 84 | 117 | 1.7 | 10.4 | 0.00 | 0.00 | 0.00 | 100 | 1016.3 |
| 20260903180537 | 85 | 132 | 0.9 | 6.1 | 0.00 | 0.00 | 0.00 | 100 | 1016.3 |
| 20260903180038 | 84 | 136 | 0.9 | 7.8 | 0.00 | 0.00 | 0.00 | 100 | 1016.3 |
| 20260903175536 | 84 | 64 | 2.6 | 7.8 | 0.00 | 0.00 | 0.00 | 100 | 1016.3 |
| 20260903175036 | 84 | 119 | 2.6 | 8.7 | 0.00 | 0.00 | 0.00 | 100 | 1016.2 |
| 20260903174536 | 85 | 134 | 4.3 | 8.7 | 0.00 | 0.00 | 0.00 | 100 | 1016.5 |
| 20260903174036 | 85 | 137 | 1.7 | 7.0 | 0.00 | 0.00 | 0.00 | 100 | 1016.3 |
| 20260903173535 | 86 | 126 | 2.6 | 7.0 | 0.00 | 0.00 | 0.00 | 100 | 1016.2 |
| 20260903173034 | 86 | 116 | 1.7 | 7.0 | 0.00 | 0.00 | 0.00 | 100 | 1016.3 |
| 20260903172534 | 86 | 109 | 2.6 | 6.1 | 0.00 | 0.00 | 0.00 | 100 | 1016.4 |
| 20260903172034 | 85 | 127 | 2.6 | 7.8 | 0.00 | 0.00 | 0.00 | 100 | 1016.5 |
| 20260903171532 | 85 | 146 | 0.9 | 8.7 | 0.00 | 0.00 | 0.00 | 100 | 1016.6 |
| 20260903171033 | 84 | 118 | 2.6 | 9.6 | 0.00 | 0.00 | 0.00 | 100 | 1016.4 |
| 20260903170535 | 83 | 146 | 2.6 | 9.6 | 0.00 | 0.00 | 0.00 | 100 | 1016.5 |
| 20260903170036 | 83 | 105 | 2.6 | 8.7 | 0.00 | 0.00 | 0.00 | 100 | 1016.6 |
| 20260903165533 | 83 | 123 | 1.7 | 8.7 | 0.00 | 0.00 | 0.00 | 100 | 1016.6 |
| 20260903165032 | 83 | 125 | 0.9 | 7.0 | 0.00 | 0.00 | 0.00 | 100 | 1016.8 |
| 20260903164532 | 84 | 120 | 2.6 | 7.8 | 0.00 | 0.00 | 0.00 | 100 | 1016.8 |
| 20260903164032 | 84 | 105 | 2.6 | 7.8 | 0.00 | 0.00 | 0.00 | 100 | 1016.9 |
| 20260903163534 | 84 | 107 | 0.9 | 6.1 | 0.00 | 0.00 | 0.00 | 100 | 1017.0 |
| 20260903163031 | 84 | 129 | 0.0 | 7.0 | 0.00 | 0.00 | 0.00 | 100 | 1017.0 |
| 20260903162532 | 84 | 146 | 2.6 | 7.0 | 0.00 | 0.00 | 0.00 | 100 | 1017.0 |
| 20260903162032 | 85 | 119 | 2.6 | 7.8 | 0.00 | 0.00 | 0.00 | 100 | 1017.1 |
| 20260903161534 | 85 | 113 | 3.5 | 7.0 | 0.00 | 0.00 | 0.00 | 100 | 1017.1 |
| 20260903161031 | 85 | 111 | 0.0 | 4.3 | 0.00 | 0.00 | 0.00 | 100 | 1017.0 |
| 20260903160532 | 86 | 111 | 1.7 | 4.3 | 0.00 | 0.00 | 0.00 | 100 | 1017.0 |
| 20260903160053 | 85 | 138 | 0.9 | 3.5 | 0.00 | 0.00 | 0.00 | 100 | 1016.9 |
| 20260903155530 | 85 | 120 | 0.9 | 5.2 | 0.00 | 0.00 | 0.00 | 100 | 1016.9 |
| 20260903155031 | 85 | 121 | 0.9 | 5.2 | 0.00 | 0.00 | 0.00 | 100 | 1017.0 |
| 20260903154531 | 86 | 109 | 0.0 | 4.3 | 0.00 | 0.00 | 0.00 | 100 | 1017.0 |
| 20260903154030 | 86 | 128 | 1.7 | 6.1 | 0.00 | 0.00 | 0.00 | 100 | 1017.0 |
| 20260903153529 | 86 | 102 | 1.7 | 7.0 | 0.00 | 0.00 | 0.00 | 100 | 1017.1 |
| 20260903153030 | 85 | 140 | 1.7 | 7.0 | 0.00 | 0.00 | 0.00 | 100 | 1017.2 |
| 20260903152530 | 86 | 107 | 1.7 | 5.2 | 0.00 | 0.00 | 0.00 | 100 | 1017.3 |
| 20260903152030 | 86 | 82 | 0.9 | 6.1 | 0.00 | 0.00 | 0.00 | 100 | 1017.3 |
| 20260903151534 | 86 | 144 | 1.7 | 3.5 | 0.00 | 0.00 | 0.00 | 100 | 1017.3 |
| 20260903151028 | 86 | 212 | 0.9 | 7.0 | 0.00 | 0.00 | 0.00 | 100 | 1017.3 |
| 20260903150527 | 86 | 232 | 1.7 | 7.0 | 0.00 | 0.00 | 0.00 | 100 | 1017.2 |
| 20260903150030 | 86 | 224 | 1.7 | 5.2 | 0.00 | 0.00 | 0.00 | 100 | 1017.2 |
| 20260903145526 | 86 | 197 | 0.9 | 7.0 | 0.00 | 0.00 | 0.00 | 100 | 1017.2 |
| 20260903145026 | 86 | 219 | 2.6 | 7.0 | 0.00 | 0.00 | 0.00 | 100 | 1017.1 |
| 20260903144526 | 86 | 188 | 1.7 | 4.3 | 0.00 | 0.00 | 0.00 | 100 | 1017.1 |
| 20260903144024 | 87 | 197 | 2.6 | 4.3 | 0.00 | 0.00 | 0.00 | 100 | 1017.2 |
| 20260903143523 | 87 | 170 | 1.7 | 5.2 | 0.00 | 0.00 | 0.00 | 100 | 1017.1 |
| 20260903143026 | 86 | 184 | 0.9 | 5.2 | 0.00 | 0.00 | 0.00 | 100 | 1017.0 |
| 20260903142521 | 86 | 178 | 0.9 | 7.8 | 0.00 | 0.00 | 0.00 | 100 | 1017.1 |
| 20260903142019 | 86 | 162 | 2.6 | 7.8 | 0.00 | 0.00 | 0.00 | 100 | 1016.9 |
| 20260903141517 | 85 | 233 | 1.7 | 4.3 | 0.00 | 0.00 | 0.00 | 100 | 1016.9 |
| 20260903141019 | 85 | 224 | 1.7 | 4.3 | 0.00 | 0.00 | 0.00 | 100 | 1016.9 |
| 20260903140514 | 85 | 210 | 1.7 | 4.3 | 0.00 | 0.00 | 0.00 | 100 | 1016.8 |
| 20260903140013 | 85 | 181 | 1.7 | 5.2 | 0.00 | 0.00 | 0.00 | 100 | 1016.8 |